Time,TemperatureF,DewpointF,PressureIn,WindDirection,WindDirectionDegrees,WindSpeedMPH,WindSpeedGustMPH,Humidity,HourlyPrecipIn,Conditions,Clouds,dailyrainin,SoftwareType,DateUTC
2013-08-09 00:00:00,61.8,60.9,30.01,East,96,0.0,0.0,97,0.00,,,0.00,Wunderground v.1.15,2013-08-09 04:00:00,
2013-08-09 00:09:00,61.8,60.9,30.01,ENE,64,0.0,0.0,97,0.00,,,0.00,Wunderground v.1.15,2013-08-09 04:09:00,
2013-08-09 00:19:00,61.8,60.9,30.01,ENE,64,0.0,0.0,97,0.00,,,0.00,Wunderground v.1.15,2013-08-09 04:19:00,
2013-08-09 00:30:00,61.8,60.9,30.00,East,84,0.0,0.0,97,0.00,,,0.00,Wunderground v.1.15,2013-08-09 04:30:00,
2013-08-09 00:39:00,61.8,60.9,30.00,East,84,0.0,0.0,97,0.00,,,0.00,Wunderground v.1.15,2013-08-09 04:39:00,
2013-08-09 00:49:00,61.9,61.0,30.00,East,86,0.0,0.0,97,0.00,,,0.00,Wunderground v.1.15,2013-08-09 04:49:00,
2013-08-09 01:00:00,61.9,61.0,30.00,East,86,0.0,0.0,97,0.00,,,0.00,Wunderground v.1.15,2013-08-09 05:00:00,
2013-08-09 01:09:00,61.9,61.0,30.00,East,86,0.0,0.0,97,0.00,,,0.00,Wunderground v.1.15,2013-08-09 05:09:00,
2013-08-09 01:19:00,61.9,61.0,30.00,East,86,0.0,0.0,97,0.00,,,0.00,Wunderground v.1.15,2013-08-09 05:19:00,
2013-08-09 01:30:00,61.9,61.3,30.00,East,86,0.0,0.0,98,0.00,,,0.00,Wunderground v.1.15,2013-08-09 05:30:00,
2013-08-09 01:39:00,62.0,61.4,30.00,East,86,0.0,0.0,98,0.00,,,0.00,Wunderground v.1.15,2013-08-09 05:39:00,
2013-08-09 01:49:00,62.1,61.5,30.00,East,86,0.0,0.0,98,0.00,,,0.00,Wunderground v.1.15,2013-08-09 05:49:00,
2013-08-09 02:00:00,62.1,61.5,29.99,East,86,0.0,0.0,98,0.00,,,0.00,Wunderground v.1.15,2013-08-09 06:00:00,
2013-08-09 02:09:00,62.2,61.6,29.99,East,86,0.0,0.0,98,0.00,,,0.00,Wunderground v.1.15,2013-08-09 06:09:00,
2013-08-09 02:19:00,62.2,61.6,29.99,East,86,0.0,0.0,98,0.00,,,0.00,Wunderground v.1.15,2013-08-09 06:19:00,
2013-08-09 02:30:00,62.2,61.6,29.99,East,86,0.0,0.0,98,0.00,,,0.00,Wunderground v.1.15,2013-08-09 06:30:00,
2013-08-09 02:39:00,62.3,61.7,29.99,East,84,0.0,0.0,98,0.00,,,0.00,Wunderground v.1.15,2013-08-09 06:39:00,
2013-08-09 02:49:00,62.3,61.7,29.99,ESE,102,0.0,0.0,98,0.00,,,0.00,Wunderground v.1.15,2013-08-09 06:49:00,
2013-08-09 03:00:00,62.3,61.7,29.99,ESE,102,0.0,0.0,98,0.00,,,0.00,Wunderground v.1.15,2013-08-09 07:00:00,
2013-08-09 03:09:00,62.3,61.7,29.99,ESE,102,0.0,0.0,98,0.00,,,0.00,Wunderground v.1.15,2013-08-09 07:09:00,
2013-08-09 03:19:00,62.3,61.7,29.98,ESE,102,0.0,0.0,98,0.00,,,0.00,Wunderground v.1.15,2013-08-09 07:19:00,
2013-08-09 03:30:00,62.2,61.6,29.99,ESE,102,0.0,0.0,98,0.00,,,0.00,Wunderground v.1.15,2013-08-09 07:30:00,
2013-08-09 03:39:00,62.3,61.7,29.98,ESE,102,0.0,0.0,98,0.00,,,0.00,Wunderground v.1.15,2013-08-09 07:39:00,
2013-08-09 03:49:00,62.2,61.6,29.98,ESE,102,0.0,0.0,98,0.00,,,0.00,Wunderground v.1.15,2013-08-09 07:49:00,
2013-08-09 04:00:00,62.2,61.6,29.98,SW,226,0.0,0.0,98,0.00,,,0.00,Wunderground v.1.15,2013-08-09 08:00:00,
2013-08-09 04:09:00,62.1,61.5,29.99,SW,227,0.0,0.0,98,0.00,,,0.00,Wunderground v.1.15,2013-08-09 08:09:00,
2013-08-09 04:19:00,62.1,61.5,29.99,NE,48,0.0,0.0,98,0.00,,,0.00,Wunderground v.1.15,2013-08-09 08:19:00,
2013-08-09 04:30:00,62.0,61.4,29.98,NE,46,0.0,0.0,98,0.00,,,0.00,Wunderground v.1.15,2013-08-09 08:30:00,
2013-08-09 04:39:00,62.0,61.4,29.98,NE,46,0.0,0.0,98,0.00,,,0.00,Wunderground v.1.15,2013-08-09 08:39:00,
2013-08-09 04:49:00,61.9,61.3,29.98,NE,46,0.0,0.0,98,0.00,,,0.00,Wunderground v.1.15,2013-08-09 08:49:00,
2013-08-09 05:00:00,61.8,61.2,29.98,South,169,0.0,0.0,98,0.00,,,0.01,Wunderground v.1.15,2013-08-09 09:00:00,
2013-08-09 05:09:00,61.7,61.1,29.98,ESE,119,0.0,0.0,98,0.00,,,0.01,Wunderground v.1.15,2013-08-09 09:09:00,
2013-08-09 05:19:00,61.6,61.0,29.98,East,91,0.0,0.0,98,0.00,,,0.01,Wunderground v.1.15,2013-08-09 09:19:00,
2013-08-09 05:30:00,61.6,61.0,29.98,East,85,0.0,0.0,98,0.00,,,0.01,Wunderground v.1.15,2013-08-09 09:30:00,
2013-08-09 05:39:00,61.6,61.0,29.98,East,85,0.0,0.0,98,0.00,,,0.01,Wunderground v.1.15,2013-08-09 09:39:00,
2013-08-09 05:49:00,61.7,61.1,29.98,East,84,0.0,0.0,98,0.00,,,0.01,Wunderground v.1.15,2013-08-09 09:49:00,
2013-08-09 06:00:00,61.7,61.1,29.98,East,85,0.0,0.0,98,0.00,,,0.01,Wunderground v.1.15,2013-08-09 10:00:00,
2013-08-09 06:09:00,61.7,61.1,29.98,East,82,0.0,0.0,98,0.00,,,0.01,Wunderground v.1.15,2013-08-09 10:09:00,
2013-08-09 06:19:00,61.8,61.2,29.98,East,82,0.0,0.0,98,0.00,,,0.01,Wunderground v.1.15,2013-08-09 10:19:00,
2013-08-09 06:30:00,61.9,61.3,29.98,East,82,0.0,0.0,98,0.00,,,0.01,Wunderground v.1.15,2013-08-09 10:30:00,
2013-08-09 06:39:00,61.9,61.3,29.98,East,86,0.0,0.0,98,0.00,,,0.01,Wunderground v.1.15,2013-08-09 10:39:00,
2013-08-09 06:49:00,62.0,61.4,29.98,East,86,0.0,0.0,98,0.00,,,0.01,Wunderground v.1.15,2013-08-09 10:49:00,
2013-08-09 07:00:00,62.1,61.5,29.98,East,86,0.0,0.0,98,0.00,,,0.01,Wunderground v.1.15,2013-08-09 11:00:00,
2013-08-09 07:09:00,62.1,61.5,29.98,East,86,0.0,0.0,98,0.00,,,0.01,Wunderground v.1.15,2013-08-09 11:09:00,
2013-08-09 07:19:00,62.2,61.6,29.97,East,85,0.0,0.0,98,0.00,,,0.01,Wunderground v.1.15,2013-08-09 11:19:00,
2013-08-09 07:30:00,62.4,61.8,29.97,ESE,105,0.0,0.0,98,0.00,,,0.01,Wunderground v.1.15,2013-08-09 11:30:00,
2013-08-09 07:39:00,62.4,61.8,29.98,ESE,107,0.0,0.0,98,0.00,,,0.01,Wunderground v.1.15,2013-08-09 11:39:00,
2013-08-09 07:49:00,62.5,61.9,29.98,South,188,0.0,0.0,98,0.00,,,0.01,Wunderground v.1.15,2013-08-09 11:49:00,
2013-08-09 08:00:00,62.6,62.0,29.98,South,189,0.0,0.0,98,0.00,,,0.01,Wunderground v.1.15,2013-08-09 12:00:00,
2013-08-09 08:09:00,62.7,62.1,29.97,South,169,0.0,0.0,98,0.00,,,0.01,Wunderground v.1.15,2013-08-09 12:09:00,
2013-08-09 08:19:00,62.8,62.2,29.96,SSE,168,0.0,0.0,98,0.00,,,0.01,Wunderground v.1.15,2013-08-09 12:19:00,
2013-08-09 08:30:00,62.9,62.3,29.96,ESE,122,0.0,0.0,98,0.00,,,0.01,Wunderground v.1.15,2013-08-09 12:30:00,
2013-08-09 08:39:00,63.0,62.4,29.96,ESE,123,0.0,0.0,98,0.00,,,0.01,Wunderground v.1.15,2013-08-09 12:39:00,
2013-08-09 08:49:00,63.1,62.5,29.96,SE,126,0.0,0.0,98,0.00,,,0.01,Wunderground v.1.15,2013-08-09 12:49:00,
2013-08-09 09:00:00,63.1,62.5,29.97,SE,131,0.0,0.0,98,0.00,,,0.01,Wunderground v.1.15,2013-08-09 13:00:00,
2013-08-09 09:09:00,63.1,62.5,29.97,SE,144,0.0,0.0,98,0.00,,,0.01,Wunderground v.1.15,2013-08-09 13:09:00,
2013-08-09 09:19:00,63.1,62.5,29.96,SE,144,0.0,0.0,98,0.00,,,0.01,Wunderground v.1.15,2013-08-09 13:19:00,
2013-08-09 09:30:00,63.2,62.6,29.95,SE,144,0.0,0.0,98,0.00,,,0.01,Wunderground v.1.15,2013-08-09 13:30:00,
2013-08-09 09:39:00,63.4,62.8,29.93,SE,144,0.0,0.0,98,0.00,,,0.01,Wunderground v.1.15,2013-08-09 13:39:00,
2013-08-09 09:49:00,63.6,63.0,29.92,East,97,0.0,0.0,98,0.00,,,0.01,Wunderground v.1.15,2013-08-09 13:49:00,
2013-08-09 10:00:00,64.0,63.4,29.91,East,97,0.0,0.0,98,0.00,,,0.01,Wunderground v.1.15,2013-08-09 14:00:00,
2013-08-09 10:09:00,64.4,63.8,29.90,East,97,0.0,0.0,98,0.00,,,0.01,Wunderground v.1.15,2013-08-09 14:09:00,
2013-08-09 10:19:00,64.8,64.2,29.91,SSE,153,0.0,0.0,98,0.00,,,0.01,Wunderground v.1.15,2013-08-09 14:19:00,
2013-08-09 10:30:00,65.0,64.4,29.91,SSE,155,1.0,1.0,98,0.00,,,0.01,Wunderground v.1.15,2013-08-09 14:30:00,
2013-08-09 10:39:00,65.3,64.7,29.91,ENE,66,1.0,1.0,98,0.00,,,0.01,Wunderground v.1.15,2013-08-09 14:39:00,
2013-08-09 10:49:00,65.2,64.6,29.91,SW,225,0.0,0.0,98,0.00,,,0.01,Wunderground v.1.15,2013-08-09 14:49:00,
2013-08-09 11:00:00,65.1,64.5,29.91,SE,135,0.0,0.0,98,0.00,,,0.01,Wunderground v.1.15,2013-08-09 15:00:00,
2013-08-09 11:09:00,65.1,64.2,29.92,East,99,0.0,0.0,97,0.00,,,0.01,Wunderground v.1.15,2013-08-09 15:09:00,
2013-08-09 11:19:00,65.0,64.1,29.92,South,182,0.0,0.0,97,0.00,,,0.01,Wunderground v.1.15,2013-08-09 15:19:00,
2013-08-09 11:30:00,64.9,64.0,29.92,SSE,155,1.0,1.0,97,0.00,,,0.01,Wunderground v.1.15,2013-08-09 15:30:00,
2013-08-09 11:39:00,64.8,63.9,29.92,ENE,61,0.0,0.0,97,0.00,,,0.01,Wunderground v.1.15,2013-08-09 15:39:00,
2013-08-09 11:49:00,64.6,63.7,29.91,SE,143,0.0,0.0,97,0.00,,,0.01,Wunderground v.1.15,2013-08-09 15:49:00,
2013-08-09 12:00:00,64.9,64.0,29.90,ENE,65,0.0,0.0,97,0.00,,,0.01,Wunderground v.1.15,2013-08-09 16:00:00,
2013-08-09 12:09:00,65.6,64.7,29.90,SSE,167,0.0,1.0,97,0.00,,,0.01,Wunderground v.1.15,2013-08-09 16:09:00,
2013-08-09 12:19:00,66.3,65.1,29.89,ENE,76,0.0,0.0,96,0.00,,,0.01,Wunderground v.1.15,2013-08-09 16:19:00,
2013-08-09 12:30:00,66.6,64.8,29.90,SSW,196,0.0,0.0,94,0.00,,,0.01,Wunderground v.1.15,2013-08-09 16:30:00,
2013-08-09 12:39:00,66.7,64.9,29.90,ESE,112,0.0,0.0,94,0.00,,,0.01,Wunderground v.1.15,2013-08-09 16:39:00,
2013-08-09 12:49:00,66.7,64.9,29.89,SSE,148,0.0,0.0,94,0.00,,,0.01,Wunderground v.1.15,2013-08-09 16:49:00,
2013-08-09 13:00:00,66.7,64.9,29.88,SE,140,0.0,0.0,94,0.00,,,0.01,Wunderground v.1.15,2013-08-09 17:00:00,
2013-08-09 13:09:00,66.8,65.0,29.88,SE,140,0.0,0.0,94,0.00,,,0.01,Wunderground v.1.15,2013-08-09 17:09:00,
2013-08-09 13:19:00,67.0,64.9,29.88,SE,140,0.0,0.0,93,0.00,,,0.01,Wunderground v.1.15,2013-08-09 17:19:00,
2013-08-09 13:30:00,67.1,65.0,29.88,SE,140,0.0,0.0,93,0.00,,,0.01,Wunderground v.1.15,2013-08-09 17:30:00,
2013-08-09 13:39:00,67.1,65.0,29.87,SE,140,0.0,0.0,93,0.00,,,0.01,Wunderground v.1.15,2013-08-09 17:39:00,
2013-08-09 13:49:00,67.0,64.9,29.87,SE,140,0.0,0.0,93,0.00,,,0.01,Wunderground v.1.15,2013-08-09 17:49:00,
2013-08-09 14:00:00,66.9,65.1,29.86,SE,140,0.0,0.0,94,0.00,,,0.01,Wunderground v.1.15,2013-08-09 18:00:00,
2013-08-09 14:09:00,66.8,65.0,29.86,South,175,0.0,0.0,94,0.00,,,0.01,Wunderground v.1.15,2013-08-09 18:09:00,
2013-08-09 14:19:00,66.8,65.0,29.86,SE,140,0.0,0.0,94,0.00,,,0.01,Wunderground v.1.15,2013-08-09 18:19:00,
2013-08-09 14:30:00,66.6,64.8,29.86,SE,126,0.0,0.0,94,0.00,,,0.01,Wunderground v.1.15,2013-08-09 18:30:00,
2013-08-09 14:39:00,66.4,64.9,29.85,East,96,0.0,0.0,95,0.00,,,0.01,Wunderground v.1.15,2013-08-09 18:39:00,
2013-08-09 14:49:00,66.2,64.7,29.85,SE,145,0.0,0.0,95,0.00,,,0.01,Wunderground v.1.15,2013-08-09 18:49:00,
2013-08-09 15:00:00,66.2,64.7,29.84,ESE,121,0.0,0.0,95,0.00,,,0.01,Wunderground v.1.15,2013-08-09 19:00:00,
2013-08-09 15:09:00,66.2,65.0,29.84,East,95,0.0,2.0,96,0.00,,,0.01,Wunderground v.1.15,2013-08-09 19:09:00,
2013-08-09 15:19:00,66.3,65.1,29.82,ESE,103,0.0,0.0,96,0.00,,,0.01,Wunderground v.1.15,2013-08-09 19:19:00,
2013-08-09 15:30:00,66.4,65.2,29.83,ESE,120,0.0,0.0,96,0.00,,,0.01,Wunderground v.1.15,2013-08-09 19:30:00,
2013-08-09 15:39:00,66.5,65.3,29.83,ESE,123,0.0,0.0,96,0.00,,,0.01,Wunderground v.1.15,2013-08-09 19:39:00,
2013-08-09 15:49:00,66.5,65.3,29.82,ESE,123,0.0,0.0,96,0.00,,,0.01,Wunderground v.1.15,2013-08-09 19:49:00,
2013-08-09 16:00:00,66.5,65.3,29.83,ESE,122,0.0,0.0,96,0.00,,,0.01,Wunderground v.1.15,2013-08-09 20:00:00,
2013-08-09 16:09:00,66.4,65.2,29.83,ESE,123,0.0,0.0,96,0.00,,,0.01,Wunderground v.1.15,2013-08-09 20:09:00,
2013-08-09 16:19:00,66.3,65.1,29.83,ESE,123,0.0,0.0,96,0.00,,,0.02,Wunderground v.1.15,2013-08-09 20:19:00,
2013-08-09 16:30:00,66.3,65.4,29.83,ESE,122,0.0,0.0,97,0.00,,,0.02,Wunderground v.1.15,2013-08-09 20:30:00,
2013-08-09 16:39:00,66.4,65.5,29.83,ESE,122,0.0,0.0,97,0.00,,,0.03,Wunderground v.1.15,2013-08-09 20:39:00,
2013-08-09 16:49:00,66.4,65.5,29.82,ESE,122,0.0,0.0,97,0.00,,,0.03,Wunderground v.1.15,2013-08-09 20:49:00,
2013-08-09 17:00:00,66.4,65.5,29.82,ESE,123,0.0,0.0,97,0.00,,,0.03,Wunderground v.1.15,2013-08-09 21:00:00,
2013-08-09 17:09:00,66.5,65.6,29.81,ESE,122,0.0,0.0,97,0.00,,,0.03,Wunderground v.1.15,2013-08-09 21:09:00,
2013-08-09 17:19:00,66.7,65.8,29.80,ESE,122,0.0,0.0,97,0.00,,,0.03,Wunderground v.1.15,2013-08-09 21:19:00,
2013-08-09 17:30:00,66.7,65.8,29.80,ESE,122,0.0,0.0,97,0.00,,,0.03,Wunderground v.1.15,2013-08-09 21:30:00,
2013-08-09 17:39:00,66.8,65.9,29.80,ESE,122,0.0,0.0,97,0.00,,,0.03,Wunderground v.1.15,2013-08-09 21:39:00,
2013-08-09 17:49:00,66.8,65.9,29.80,ESE,123,0.0,0.0,97,0.00,,,0.03,Wunderground v.1.15,2013-08-09 21:49:00,
2013-08-09 18:00:00,66.8,65.9,29.79,ESE,123,0.0,1.0,97,0.00,,,0.03,Wunderground v.1.15,2013-08-09 22:00:00,
2013-08-09 18:09:00,66.9,66.0,29.78,ESE,123,0.0,0.0,97,0.00,,,0.03,Wunderground v.1.15,2013-08-09 22:09:00,
2013-08-09 18:19:00,67.0,66.1,29.78,ESE,122,0.0,0.0,97,0.00,,,0.03,Wunderground v.1.15,2013-08-09 22:19:00,
2013-08-09 18:30:00,67.1,66.2,29.78,ESE,115,0.0,0.0,97,0.00,,,0.03,Wunderground v.1.15,2013-08-09 22:30:00,
2013-08-09 18:39:00,67.1,66.2,29.78,South,171,0.0,0.0,97,0.00,,,0.03,Wunderground v.1.15,2013-08-09 22:39:00,
2013-08-09 18:49:00,67.1,66.5,29.78,SSE,160,0.0,0.0,98,0.00,,,0.03,Wunderground v.1.15,2013-08-09 22:49:00,
2013-08-09 19:00:00,67.0,66.1,29.77,SSW,204,0.0,0.0,97,0.00,,,0.03,Wunderground v.1.15,2013-08-09 23:00:00,
2013-08-09 19:09:00,67.0,66.1,29.77,SSW,192,0.0,0.0,97,0.00,,,0.03,Wunderground v.1.15,2013-08-09 23:09:00,
2013-08-09 19:19:00,67.0,66.1,29.77,SSE,150,0.0,0.0,97,0.00,,,0.03,Wunderground v.1.15,2013-08-09 23:19:00,
2013-08-09 19:30:00,67.0,66.1,29.76,SSE,150,0.0,0.0,97,0.00,,,0.03,Wunderground v.1.15,2013-08-09 23:30:00,
2013-08-09 19:39:00,67.0,66.4,29.75,SSE,150,0.0,0.0,98,0.00,,,0.03,Wunderground v.1.15,2013-08-09 23:39:00,
2013-08-09 19:49:00,67.0,66.4,29.75,SSE,150,0.0,0.0,98,0.00,,,0.03,Wunderground v.1.15,2013-08-09 23:49:00,
2013-08-09 20:00:00,67.0,66.4,29.76,SSE,150,0.0,0.0,98,0.00,,,0.03,Wunderground v.1.15,2013-08-10 00:00:00,
2013-08-09 20:09:00,67.1,66.5,29.75,SSE,150,0.0,0.0,98,0.00,,,0.04,Wunderground v.1.15,2013-08-10 00:09:00,
2013-08-09 20:19:00,67.1,66.5,29.76,SSE,150,0.0,0.0,98,0.09,,,0.05,Wunderground v.1.15,2013-08-10 00:19:00,
2013-08-09 20:30:00,67.2,66.6,29.75,East,88,0.0,0.0,98,0.04,,,0.05,Wunderground v.1.15,2013-08-10 00:30:00,
2013-08-09 20:39:00,67.1,66.5,29.75,East,90,1.0,1.0,98,0.00,,,0.05,Wunderground v.1.15,2013-08-10 00:39:00,
2013-08-09 20:49:00,67.0,66.4,29.74,ENE,67,0.0,1.0,98,0.00,,,0.05,Wunderground v.1.15,2013-08-10 00:49:00,
2013-08-09 21:00:00,66.8,66.2,29.74,ENE,67,0.0,0.0,98,0.00,,,0.05,Wunderground v.1.15,2013-08-10 01:00:00,
2013-08-09 21:09:00,66.6,66.0,29.74,ENE,67,0.0,0.0,98,0.00,,,0.05,Wunderground v.1.15,2013-08-10 01:09:00,
2013-08-09 21:19:00,66.4,65.5,29.74,ESE,108,0.0,0.0,97,0.00,,,0.05,Wunderground v.1.15,2013-08-10 01:19:00,
2013-08-09 21:30:00,66.1,65.5,29.73,WSW,237,0.0,0.0,98,0.00,,,0.05,Wunderground v.1.15,2013-08-10 01:30:00,
2013-08-09 21:39:00,65.8,64.9,29.73,West,260,0.0,0.0,97,0.00,,,0.05,Wunderground v.1.15,2013-08-10 01:39:00,
2013-08-09 21:49:00,65.6,64.7,29.73,ESE,113,0.0,0.0,97,0.00,,,0.05,Wunderground v.1.15,2013-08-10 01:49:00,
2013-08-09 22:00:00,65.4,64.5,29.73,SSE,160,0.0,0.0,97,0.00,,,0.05,Wunderground v.1.15,2013-08-10 02:00:00,
2013-08-09 22:09:00,65.2,64.3,29.73,SW,221,0.0,0.0,97,0.00,,,0.05,Wunderground v.1.15,2013-08-10 02:09:00,
2013-08-09 22:19:00,64.9,64.0,29.73,East,96,0.0,0.0,97,0.00,,,0.05,Wunderground v.1.15,2013-08-10 02:19:00,
2013-08-09 22:30:00,64.7,63.8,29.72,East,96,0.0,0.0,97,0.00,,,0.05,Wunderground v.1.15,2013-08-10 02:30:00,
2013-08-09 22:39:00,64.5,63.6,29.71,East,96,0.0,0.0,97,0.00,,,0.05,Wunderground v.1.15,2013-08-10 02:39:00,
2013-08-09 22:49:00,64.7,64.1,29.71,East,96,0.0,0.0,98,0.00,,,0.05,Wunderground v.1.15,2013-08-10 02:49:00,
2013-08-09 23:00:00,64.7,63.8,29.70,SW,227,0.0,0.0,97,0.00,,,0.05,Wunderground v.1.15,2013-08-10 03:00:00,
2013-08-09 23:09:00,64.5,63.6,29.70,SW,228,0.0,0.0,97,0.00,,,0.05,Wunderground v.1.15,2013-08-10 03:09:00,
2013-08-09 23:19:00,64.7,64.1,29.70,SW,228,0.0,0.0,98,0.00,,,0.05,Wunderground v.1.15,2013-08-10 03:19:00,
2013-08-09 23:30:00,64.9,64.3,29.69,SW,228,0.0,0.0,98,0.00,,,0.05,Wunderground v.1.15,2013-08-10 03:30:00,
2013-08-09 23:39:00,65.0,64.4,29.69,SW,227,0.0,1.0,98,0.00,,,0.05,Wunderground v.1.15,2013-08-10 03:39:00,
2013-08-09 23:49:00,65.0,64.1,29.69,SW,228,0.0,0.0,97,0.00,,,0.05,Wunderground v.1.15,2013-08-10 03:49:00,